Regional Weather Roundup
Issued by NWS

Home | Current Version | Previous Version | Graphics & Text | Print | Product List | Glossary On
Versions: 1 2 3 4 5 6 7 8 9 10 11 12 13 14 15 16 17 18 19 20 21 22 23 24 25 26 27 28 29 30 31 32 33 34 35 36 37 38 39 40 41 42 43 44 45 46 47 48 49 50
000
ASUS43 KMPX 030310
RWRMN
WEATHER ROUNDUP FOR MINNESOTA
NATIONAL WEATHER SERVICE TWIN CITIES/CHANHASSEN MN
1000 PM CDT WED SEP 02 2015


NOTE: "FAIR" INDICATES FEW OR NO CLOUDS BELOW 12,000 FEET WITH NO
SIGNIFICANT WEATHER AND/OR OBSTRUCTIONS TO VISIBILITY. N/A MEANS
CURRENT SKY AND/OR WEATHER CONDITIONS ARE NOT AVAILABLE.

MNZ060>063-068>070-030400-
   Twin Cities Metro

CITY           SKY/WX    TMP DP  RH WIND       PRES   REMARKS
TWIN CITIES    MOCLDY    72  68  87 NE8       29.90R
ST PAUL        MOCLDY    71  68  90 E5        29.90R
CRYSTAL        PTCLDY    70  67  90 E6        29.89R
BLAINE         PTCLDY    70  70 100 E6        29.91R
LAKEVILLE      CLEAR     68  68 100 CALM      29.90R
EDEN PRAIRIE   PTCLDY    73  69  87 NE8       29.88R
SOUTH ST PAUL  PTCLDY    72  68  88 E5        29.90S
LAKE ELMO      MOCLDY    70  68  94 E6        29.92R
$$
MNZ001>005-007-008-013>017-022>024-027-028-030400-
   Northwest Minnesota

CITY           SKY/WX    TMP DP  RH WIND       PRES   REMARKS
BEMIDJI        CLEAR     69  65  89 SE6       29.91R
HALLOCK        CLEAR     75  64  69 SE9       29.80S
ROSEAU         CLEAR     73  66  78 SE8       29.85S
WARROAD        CLEAR     70  66  88 SE5       29.88R
THIEF RVR FALL CLEAR     72  66  83 SE7       29.86R
CROOKSTON      CLEAR     75  66  73 S10       29.83S
FOSSTON        CLEAR     72  63  73 SE7       29.88R
DETROIT LAKES  CLEAR     72  68  88 SE13      29.90R
MOORHEAD       CLEAR     73  68  83 SE7       29.83S
PARK RAPIDS    CLEAR     71  65  81 SE12      29.92R
MAHNOMEN       FAIR      71  66  86 SE7       29.87R
$$
MNZ006-009>011-018-025>026-030400-
   North Central Minnesota

CITY           SKY/WX    TMP DP  RH WIND       PRES   REMARKS
BAUDETTE       CLEAR     70  62  76 SE8       29.89R
FLAG ISLAND    CLEAR     73  66  78 SE10      29.86S
INTL FALLS     CLEAR     66  63  90 SE7       29.93R
WASKISH        CLEAR     68  64  88 CALM      29.90S
BIG FORK       CLEAR     70  64  83 SE3       29.94S
LONGVILLE      CLEAR     66  64  94 CALM      29.93S
GRAND RAPIDS     N/A     66  63  88 SE5       29.95R
CRANE LAKE     CLEAR     59  57  94 CALM      29.97R
ORR            CLEAR     66  61  82 CALM      29.94R
COOK           CLEAR     64  63  94 CALM      29.96S
WALKER         FAIR      69  65  85 SE8       29.92S
$$
MNZ012-019>021-037-030400-
   Northeast Minnesota

CITY           SKY/WX    TMP DP  RH WIND       PRES   REMARKS
DULUTH         CLEAR     62  60  93 E8        29.97R
ELY            CLEAR     63  61  94 SE6       29.98R
HIBBING        CLEAR     64  63  96 SE3       29.96R
EVELETH        FOG       61  61 100 CALM      29.98S VSB 3/4
DULUTH HARBOR  CLEAR     61  57  88 NE5       29.97R
TWO HARBORS    CLEAR     64  59  82 NE3       29.96S
SILVER BAY     CLEAR     63  61  94 NE3       29.96S
GRAND MARAIS     N/A     58  56  93 N3        29.98R
G MARAIS ARPRT CLEAR     57  54  88 CALM      30.02S
$$
MNZ029>031-032-039>041-046>048-054>057-064-030400-
   West Central Minnesota

CITY           SKY/WX    TMP DP  RH WIND       PRES   REMARKS
FERGUS FALLS   CLEAR     73  68  83 SE10      29.85R
WHEATON        CLEAR     72  68  88 E8        29.85R
MORRIS         PTCLDY    72  72 100 E9        29.85S FOG
ALEXANDRIA     PTCLDY    71  68  90 E10       29.90S
ELBOW LAKE     FAIR      72  69  91 E9        29.86S
WADENA         MOCLDY    70  66  88 E6        29.91R
GLENWOOD       MOCLDY    70  68  94 E9        29.90S FOG
APPLETON       PTCLDY    75  70  83 E10       29.84S
BENSON         PTCLDY    73  68  83 SE7       29.86S
ORTONVILLE     PTCLDY    75  72  88 E10       29.83S
MADISON        PTCLDY    75  72  88 SE9       29.84R
WILLMAR        FAIR      73  72  94 E10       29.89R
$$
MNZ033>034-036-042>043-049>051-058-059-030400-
   Central Minnesota

CITY           SKY/WX    TMP DP  RH WIND       PRES   REMARKS
ST CLOUD       PTCLDY    69  68  96 E7        29.91R
SAUK CENTRE    MOCLDY    69  67  94 E6        29.90S
PAYNESVILLE    MOCLDY    71  69  95 NE7       29.90S
AITKIN         CLEAR     66  61  82 CALM      29.93R
PINE RIVER     CLEAR     64  64 100 CALM      29.97R
BRAINERD       PTCLDY    65  63  93 CALM      29.93R
STAPLES        CLOUDY    70  64  83 E3        29.92R
LONG PRAIRIE   FAIR      68  66  94 E6        29.91S
LITTLE FALLS   CLOUDY    70  64  83 SE5       29.91S
LITCHFIELD     PTCLDY    72  72 100 E7        29.90S
BUFFALO        PTCLDY    69  66  89 NE7       29.91S
MAPLE LAKE     PTCLDY    70  68  95 E8        29.91S
$$
MNZ037-044-045-052-053-030400-
   East Central Minnesota

CITY           SKY/WX    TMP DP  RH WIND       PRES   REMARKS
PRINCETON      PTCLDY    70  66  88 E3        29.92R
MORA           CLOUDY    70  66  88 E3        29.94S
CAMBRIDGE      CLEAR     72  63  73 CALM      29.91R
RUSH CITY      CLOUDY    70  66  88 CALM      29.93R
MOOSE LAKE     PTCLDY    63  61  94 NE5       29.93S
HINCKLEY       CLOUDY    70  68  94 E5        29.94R
CLOQUET        CLOUDY    63  61  94 CALM      29.97R
MCGREGOR       CLEAR     64  63  94 E5        29.95R
$$
MNZ071>073-080-081-089-090-097-098-030400-
   Southwest Minnesota

CITY           SKY/WX    TMP DP  RH WIND       PRES   REMARKS
MONTEVIDEO     PTCLDY    73  73 100 SE8       29.87R FOG
GRANITE FALLS  PTCLDY    75  73  94 E5        29.87R
CANBY          PTCLDY    74  72  92 SE5       29.85S
MARSHALL       PTCLDY    75  70  83 S6        29.87R
REDWOOD FALLS  PTCLDY    76  73  91 E6        29.86R
OLIVIA         PTCLDY    72  70  94 E8        29.87R
PIPESTONE      CLEAR     75  72  88 SE5       29.88R
WINDOM         CLEAR     75  70  83 CALM      29.89R
WORTHINGTON    CLEAR     73  68  83 S7        29.89R
JACKSON        CLEAR     73  72  94 S6        29.90R
TRACY          PTCLDY    74  73  93 CALM      29.87R
SLAYTON        CLEAR     72  71  99 CALM      29.89S
$$
MNZ065>067-074>077-082>085-091>093-030400-
   South Central Minnesota

CITY           SKY/WX    TMP DP  RH WIND       PRES   REMARKS
MANKATO        FAIR      75  72  88 SE6       29.88R
NEW ULM        PTCLDY    75  73  94 SE5       29.87R
ST JAMES       PTCLDY    75  73  94 SE3       29.88S
FAIRMONT       CLEAR     73  64  73 S6        29.88S
GLENCOE        PTCLDY    73  71  96 NE5       29.89R
FARIBAULT      PTCLDY    72  72 100 CALM      29.90R FOG
OWATONNA       PTCLDY    73  70  88 SE5       29.90R
WASECA         PTCLDY    72  70  94 E3        29.91R
ALBERT LEA     CLEAR     75  72  88 CALM      29.90R
$$
MNZ078>079-086>088-094>096-030400-
   Southeast Minnesota

CITY           SKY/WX    TMP DP  RH WIND       PRES   REMARKS
ROCHESTER      CLEAR     71  70  96 S3        29.92R
RED WING       CLEAR     72  68  88 NE3       29.89R
STANTON        CLEAR     72  69  91 CALM      29.89R
DODGE CENTER   PTCLDY    72  70  94 SE6       29.92R
WINONA         MOCLDY    77  72  83 E3        29.90R
AUSTIN         CLEAR     73  70  88 SE3       29.91R
PRESTON        PTCLDY    74  69  85 S5        29.93R
$$
ABBREVIATIONS USED IN REMARKS
   TC - TEMPERATURES IN CELSIUS
  WCI - WIND CHILL INDEX
   HX - HEAT INDEX
  VSB - VISIBILITY
$$


USA.gov is the U.S. government's official web portal to all federal, state and local government web resources and services.